www.pogodaiklimat.ru

Погода и климат >> Архив погоды >> Ирак >> Haditha


ПОГОДА в Haditha

  • Прогноз погоды в Haditha
  • Монитор погоды в Haditha
  • Климат города

АРХИВ ПОГОДЫ в Haditha

Время (UTC), дата Ветер
(напр.,м/с)
 
Видим.   Явления Облачность Т
(С)
Тd
(С)
f
(%)
Тe
(С)
Тes
(С)
Комфортность P
(гПа)
Po
(гПа)
Тmin
(С)
Tmax
(С)
R
(мм)
R24
(мм)
S
(см)
09 13.09 СВ 2 10 км 5/0
[Ac trans]
+39.4 +17.5 28 +42 +54 опасность
перегрева
1009.8 1010.0
12 13.09 СВ 3 10 км 5/0
[Ac trans]
+42.2 +18.3 25 +45 +51 опасность
перегрева
1009.7 1010.0
15 13.09 штиль 0 10 км 5/0
[Ac trans]
+40.4 +19.7 30 +45 +45 опасность
перегрева
1007.8 1008.0
18 13.09 штиль 0 10 км ясно +37.0 +20.1 37 +43 +43 опасность
перегрева
1009.9 1010.0 +42.6
21 13.09 штиль 0 10 км ясно +33.8 +19.7 44 +40 +40 очень
душно
1010.0 1010.0
06 14.09 З 2 6000 м пыль ясно +33.2 +13.4 30 +34 +41 очень
жарко
1008.0 1008.0 +25.0
09 14.09 штиль 0 8000 м мгла ясно +43.4 +17.7 23 +46 +68 опасность
перегрева
1005.6 1006.0
12 14.09 штиль 0 9000 м мгла ясно +45.6 +17.0 20 +48 +60 опасность
перегрева
1005.5 1006.0
15 14.09 штиль 0 9000 м мгла 4/0
[Ci fib]
+39.5 +20.4 33 +45 +45 опасность
перегрева
1003.7 1004.0
18 14.09 З 4 7000 м пыль ясно +35.4 +15.8 31 +37 +37 очень
душно
1005.9 1006.0 +45.8
21 14.09 З 3 10 км ясно +31.4 +15.3 38 +34 +34 душно 1008.1 1008.0
03 15.09 З 4 10 км ясно +25.8 +13.6 47 +28 +28 жарко 1008.3 1008.0
06 15.09 З 6 8000 м пыль ясно +27.0 +15.6 50 +30 +33 душно 1010.2 1010.0 +25.0
09 15.09 З 5 10 км ясно +32.5 +15.5 36 +35 +43 душно 1012.1 1012.0
12 15.09 З 4 10 км ясно +35.6 +15.5 30 +37 +43 душно 1009.9 1010.0
03 16.09 З 2 10 км ясно +22.6 +10.5 46 +24 +24 комфорт 1012.5 1013.0
15 16.09 З 2 10 км ясно +35.4 +14.0 28 +36 +36 очень
жарко
1007.9 1008.0
21 16.09 СЗ 1 10 км ясно +28.2 +15.1 45 +31 +31 душно 1008.2 1008.0
09 17.09 СЗ 1 10 км 3/0
[Ac lent]
+37.6 +14.7 26 +39 +52 опасность
солнечного
удара
1007.8 1008.0
15 17.09 З 1 10 км 3/0
[Ac lent]
+37.5 +17.4 31 +41 +41 опасность
перегрева
1005.8 1006.0
03 18.09 З 1 10 км 3/0
[Ac lent]
+25.0 +10.7 41 +26 +26 жарко 1006.3 1006.0
09 18.09 СЗ 2 10 км 6/0
[Ac und]
+39.4 +17.9 29 +43 +52 опасность
перегрева
1005.7 1006.0
15 18.09 В 2 10 км 5/0
[Ac trans]
+38.4 +19.3 33 +43 +43 опасность
перегрева
1003.8 1004.0
21 18.09 штиль 0 10 км 5/0
[Ac trans]
+31.2 +18.6 47 +36 +36 очень
душно
1006.0 1006.0
00 19.09 штиль 0 10 км 5/0
[Ac trans]
+28.2 +15.5 46 +31 +31 душно 1006.2 1006.0
03 19.09 З 2 10 км 4/0
[Ac trans]
+26.0 +14.3 48 +28 +28 жарко 1006.4 1006.0
06 19.09 З 2 9000 м пыль 1/0
[Ci fib]
+30.9 +11.3 30 +31 +38 жарко 1006.1 1006.0 +24.3
09 19.09 З 3 10 км ясно +39.6 +12.9 21 +40 +52 опасность
солнечного
удара
1005.7 1006.0
12 19.09 З 3 10 км ясно +42.8 +8.4 13 +41 +48 опасность
перегрева
1005.7 1006.0

 

Местоположение метеостанции Haditha (Ирак): широта 34.07 долгота 42.37 высота над уровнем моря 140 м.

В архиве по умолчанию представлена погода в Haditha за последнюю неделю. Архивные данные за месяц целиком и за предыдущие месяцы, начиная с января 2011 года, Вы можете получить, выбрав интересующий диапазон дат из раскрывающегося списка и нажав кнопку "Ввод!".


*Определитесь, кто Вы:
робот инопланетянин человек

Внимание! Время в таблицах - всемирное. Для получения местного времени необходимо прибавить поправку, которая в Haditha равна 3 ч.

Смотрите также архив погоды в соседних городах и на ближайших метеорологических станциях:

Погода в Ana (Ирак) (59 км)
Погода в Ramadi (Ирак) (112 км)
Погода в Al Qaim (Ирак) (129 км)
Погода в Tikrit (Ирак) (134 км)
Погода в Heet (Ирак) (137 км)
Погода в Abu Kamal (Сирия) (139 км)
Погода в Baiji (Ирак) (140 км)
Погода в Baghdad (Ирак) (196 км)
Погода в Al-Khalis (Ирак) (201 км)
Погода в Makhmoor (Ирак) (218 км)

Пояснения к столбцам:

Ветер - указаны скорость ветра в м/с - средняя за 10 мин, порывы в срок и между сроками (в фигурных скобках) и направление, откуда дует ветер: С - северный, СВ - северо-восточный, В - восточный, ЮВ - юго-восточный, Ю - южный, ЮЗ - юго-западный, З - западный, СЗ - северо-западный.
Видимость - горизонтальная дальность видимости в метрах или километрах. При видимости от 1 до 10 км при отсутствии осадков обычно наблюдается дымка, при ухудшении видимости до 1 км и менее - туман. В сухую погоду видимость может ухудшаться дымом, пылью или мглою.
Явления - указаны атмосферные явления, наблюдавшиеся в срок или в последний час перед сроком; фигурными скобками обозначены явления, наблюдавшиеся между сроками (за 1-3 часа до срока); квадратными скобками обозначены град или гололедные отложения с указанием их диаметра в мм.
Облачность - указаны через наклонную черту общая и нижняя облачность в баллах и высота нижней границы облаков в метрах; квадратными скобками обозначены формы облаков: Ci - перистые, Cs - перисто-слоистые, Cc - перисто-кучевые, Ac - высококучевые, As - высокослоистые, Sc - слоисто-кучевые, Ns - слоисто-дождевые, Cu - кучевые, Cb - кучево-дождевые. Подробнее классификацию облаков см. в Атласе облаков (PDF).
T - Температура воздуха - температура, измеренная на высоте 2 м над землей.
Td - Температура точки росы - температура, при понижении до которой содержащийся в воздухе водяной пар достигнет насыщения.
f - Относительная влажность воздуха - влажноcть воздуха, измеренная на высоте 2 м над землей.
Te - Эффективная температура - температура, которую ощущает одетый по сезону человек в тени. Характеристика душности погоды. При расчете учитывается влияние влажности воздуха и скорости ветра на теплоощущения человека.
Tes - Эффективная температура на солнце - температура, которую ощущает человек, с поправкой на солнечный нагрев. Характеристика знойности погоды. Зависит от высоты солнца над горизонтом, облачности и скорости ветра. Ночью, в пасмурную погоду, а также при ветре 12 м/с и более поправка равна нулю.
P - Атмосферное давление - приведенное к уровню моря атмосферное давление.
Po - Атмосферное давление - измеренное на уровне метеостанции атмосферное давление.
Tmin - Минимальная температура - минимум температуры воздуха на высоте 2 м над землей.
Tmax - Максимальная температура - максимум температуры воздуха на высоте 2 м над землей.
R - Количество осадков - Количество выпавших осадков за период времени, мм. При наведении курсора мыши на число - период времени, за который выпало указанное количество осадков.
R24 - Количество осадков - Количество выпавших осадков за 24 часа, мм.
S - Снежный покров - Высота снежного покрова, см. При наведении курсора мыши на число - состояние снежного покрова и степень покрытия местности в баллах.